Location: *
(53.7722°S, 170.1235°W)
Time: 09:26:05
(UTC+00:00)

Daily predictions for brighter satellites

Satellite Brightness Start Highest point End
(mag) Time Altitude Azimuth Time Altitude Azimuth Time Altitude Azimuth
ATLAS 2AS CENTAUR R/B 4.3 12:30:42 26° SE 12:30:42 26° SE 12:33:21 10° SE
Cosmos 1697 Rocket 4.3 13:36:26 29° S 13:36:26 29° S 13:39:30 10° SSE
CZ-2C R/B 4.4 13:37:37 26° SSE 13:37:37 26° SSE 13:40:14 10° S
NOSS 3-4 (A) 4.5 13:48:40 49° SSW 13:49:02 49° SSW 13:56:11 10° SE
NOSS 3-4 (C) 4.5 13:48:46 49° SSW 13:49:08 49° SSW 13:56:18 10° SE
COSMOS 2455 4.3 13:50:20 30° SSW 13:50:20 30° SSW 13:55:01 10° SE
NOSS 3-1 (A) 4.0 13:53:36 54° ESE 13:53:36 54° ESE 13:58:30 10° ENE
SL-16 R/B 3.1 13:55:13 45° SE 13:55:13 45° SE 13:59:14 10° SE
Cosmos 1464 Rocket 4.5 13:57:39 58° SSE 13:57:39 58° SSE 14:02:45 10° SSE
Cosmos 2360 Rocket 3.4 13:57:05 35° E 13:57:05 35° E 14:01:42 10° SE
Cosmos 2322 Rocket 3.0 14:02:50 48° ESE 14:02:50 48° ESE 14:07:05 10° SE
SL-16 R/B 2.9 13:55:42 10° SSE 14:01:42 60° E 14:01:42 60° E
Cosmos 1980 Rocket 3.4 14:05:20 36° S 14:05:20 36° S 14:09:11 10° SSE
CZ-4C R/B 3.1 14:04:21 57° NE 14:04:22 57° NE 14:10:59 10° SE
Cosmos 1092 Rocket 4.3 13:59:23 10° S 14:05:26 67° ESE 14:05:26 67° ESE
USA 215 3.3 14:06:34 10° ENE 14:12:30 74° ENE 14:12:30 74° ENE
Cosmos 2333 Rocket 4.2 14:12:17 17° NE 14:14:30 22° ENE 14:18:47 10° SE
Cosmos 2026 Rocket 4.4 14:09:56 10° S 14:16:20 62° ESE 14:18:21 43° NE
ATLAS 2AS CENTAUR R/B 3.5 14:18:08 35° SSW 14:18:50 36° S 14:24:48 10° SE
Cosmos 2278 Rocket 3.4 14:18:37 10° SSW 14:24:02 40° SE 14:29:23 10° ENE
ATLAS CENTAUR R/B 3.2 14:29:49 31° SE 14:29:49 31° SE 14:32:10 10° SE
Cosmos 923 Rocket 4.3 14:38:26 65° E 14:38:26 65° E 14:43:31 10° SSE
SL-08 R/B 4.2 14:37:46 10° SSE 14:42:19 44° E 14:42:58 41° ENE
Cosmos 405 Rocket 4.5 14:48:51 30° SSE 14:48:51 30° SSE 14:51:04 10° SSE
Cosmos 2034 Rocket 4.1 14:47:23 62° SW 14:47:23 62° SW 14:53:12 10° S
ALOS 3.2 14:43:12 10° NE 14:47:45 48° ESE 14:52:19 10° S
Cosmos 1452 Rocket 4.5 14:47:08 10° SSW 14:52:19 47° SE 14:57:26 10° NE
Meteor 1-11 Rocket 3.8 14:53:01 64° SW 14:53:01 64° SW 14:58:18 10° S
Cosmos 2219 Rocket 3.4 14:51:46 24° NNE 14:54:26 37° ENE 14:59:38 10° SE
Cosmos 1680 Rocket 3.6 14:54:36 66° NNE 14:55:06 70° ENE 15:00:30 10° SSE
Cosmos 1908 Rocket 3.8 15:05:41 63° S 15:05:41 63° S 15:09:30 10° SSE
Cosmos 2237 4.1 15:06:35 69° NW 15:07:18 83° WSW 15:13:08 10° SSE
STARLINK-1097 4.3 15:11:25 48° NE 15:11:25 48° NE 15:14:36 10° ENE
NOSS 2-3 (E) 4.4 15:07:48 22° SW 15:12:48 73° NW 15:18:34 10° NE
METEOR-M 4.2 15:07:50 10° NNE 15:13:15 78° ESE 15:18:43 10° SSW
CZ-2C R/B 4.2 15:17:00 19° SW 15:17:00 19° SW 15:18:35 10° SSW
CZ-4B R/B 4.1 15:17:09 34° SSW 15:17:09 34° SSW 15:19:37 10° SSW
STARLINK-1099 4.2 15:16:13 52° NE 15:16:13 52° NE 15:19:35 10° ENE
Cosmos 2322 3.8 15:13:57 44° N 15:15:47 73° ENE 15:21:33 10° SE
Cosmos 2279 Rocket 4.2 15:11:39 16° N 15:16:52 72° E 15:23:12 10° SSE
COSMOS 2428 3.5 15:14:41 23° N 15:18:03 50° ENE 15:23:35 10° SE
Cosmos 2333 4.4 15:18:07 39° NNW 15:20:18 73° ENE 15:26:09 10° SE
STARLINK-1104 4.0 15:20:59 55° NNE 15:20:59 55° NNE 15:24:32 10° ENE
SL-8 R/B 4.2 15:21:23 46° N 15:21:23 46° N 15:26:01 10° ENE
ERBS 3.2 15:23:58 50° ESE 15:23:58 50° ESE 15:26:36 10° ESE
STARLINK-1144 3.9 15:25:46 58° NNE 15:25:46 58° NNE 15:29:29 10° ENE
STARLINK-1231 4.5 15:26:15 32° ENE 15:26:15 32° ENE 15:28:25 10° E
Meteor 1-21 4.2 15:20:11 10° SSW 15:25:57 84° ESE 15:31:42 10° NNE
STARLINK-1232 4.4 15:27:07 33° ENE 15:27:07 33° ENE 15:29:20 10° E
FENGYUN 3A 3.5 15:20:57 10° NNE 15:26:23 83° WNW 15:31:55 10° SSW
STARLINK-1217 4.4 15:27:34 33° ENE 15:27:34 33° ENE 15:29:47 10° E
Cosmos 1743 3.2 15:27:34 53° SSW 15:27:34 53° SSW 15:30:44 10° S
STARLINK-1208 4.4 15:28:02 33° ENE 15:28:02 33° ENE 15:30:15 10° E
STARLINK-1229 4.4 15:28:25 34° ENE 15:28:25 34° ENE 15:30:41 10° E
STARLINK-1271 4.4 15:28:52 34° ENE 15:28:52 34° ENE 15:31:09 10° E
STARLINK-1270 4.3 15:29:18 35° ENE 15:29:18 35° ENE 15:31:36 10° E
Cosmos 158 Rocket 3.7 15:27:34 56° NNW 15:28:38 86° WSW 15:33:39 10° SSE
STARLINK-1154 4.3 15:29:43 35° ENE 15:29:43 35° ENE 15:32:02 10° E
STARLINK-1197 4.3 15:30:36 36° ENE 15:30:36 36° ENE 15:32:57 10° E
NOSS 2-3 (D) 4.5 15:23:57 15° SW 15:30:08 63° NW 15:35:48 10° NNE
STARLINK-1103 3.8 15:30:33 59° N 15:30:33 59° N 15:34:26 10° ENE
STARLINK-1189 4.2 15:31:01 36° ENE 15:31:01 36° ENE 15:33:23 10° E
STARLINK-1198 4.2 15:31:28 36° ENE 15:31:28 36° ENE 15:33:51 10° E
STARLINK-1188 4.2 15:31:53 37° ENE 15:31:53 37° ENE 15:34:17 10° E
STARLINK-1235 4.1 15:32:35 39° ENE 15:32:35 39° ENE 15:34:58 10° E
STARLINK-1187 4.1 15:33:00 38° ENE 15:33:00 38° ENE 15:35:23 10° E
Cosmos 1975 2.9 15:31:48 46° N 15:32:58 79° E 15:37:11 10° SSE
STARLINK-1199 4.1 15:33:49 38° NE 15:33:49 38° NE 15:36:17 10° E
USA 229 DEB 3.9 15:33:07 41° WNW 15:33:30 41° WNW 15:39:35 10° N
USA 229 3.9 15:33:08 41° WNW 15:33:38 41° WNW 15:39:43 10° N
STARLINK-1191 4.1 15:34:15 39° NE 15:34:15 39° NE 15:36:44 10° E
STARLINK-1210 4.0 15:34:41 39° NE 15:34:41 39° NE 15:37:11 10° E
STARLINK-1221 4.0 15:35:07 39° NE 15:35:07 39° NE 15:37:37 10° E
STARLINK-1219 4.0 15:35:34 40° NE 15:35:34 40° NE 15:38:05 10° E
STARLINK-1101 3.7 15:35:20 59° NNW 15:35:20 59° NNW 15:39:24 10° ENE
STARLINK-1222 4.0 15:35:59 40° NE 15:35:59 40° NE 15:38:31 10° E
ERS-2 2.9 15:31:46 10° S 15:34:33 41° SSW 15:34:33 41° SSW
STARLINK-1211 4.0 15:36:26 41° NE 15:36:26 41° NE 15:39:00 10° E
STARLINK-1214 3.9 15:36:51 41° NE 15:36:51 41° NE 15:39:27 10° E
STARLINK-1245 3.9 15:37:15 42° NE 15:37:15 42° NE 15:39:53 10° E
STARLINK-1238 3.9 15:37:44 42° NE 15:37:44 42° NE 15:40:20 10° E
STARLINK-67 4.4 15:38:49 29° E 15:38:49 29° E 15:40:20 10° E
SL-16 R/B 3.0 15:37:05 32° WSW 15:38:05 34° SW 15:43:18 10° SSE
STARLINK-1205 3.8 15:38:34 43° NE 15:38:34 43° NE 15:41:15 10° E
STARLINK-1204 3.8 15:39:00 43° NE 15:39:00 43° NE 15:41:41 10° E
Cosmos 2112 Rocket 4.0 15:38:02 44° NW 15:39:39 68° WSW 15:45:06 10° SSE
Cosmos 1975 Rocket 3.8 15:35:52 10° SSW 15:38:49 36° SW 15:38:49 36° SW
STARLINK-1102 3.7 15:40:09 56° NNW 15:40:14 57° NNW 15:44:22 10° ENE
Cosmos 2360 Rocket 2.4 15:38:52 43° W 15:40:20 54° SW 15:46:01 10° SSE
H-2A R/B 2.1 15:36:20 10° SSE 15:40:59 86° WSW 15:43:01 33° NNW
NOSS 3-1 (A) 3.6 15:41:11 33° WSW 15:43:24 46° WNW 15:48:47 10° NNE
Okean 2 Rocket 3.7 15:39:11 10° N 15:43:40 60° E 15:48:11 10° SSE
STARLINK-1111 3.8 15:44:54 53° NW 15:45:10 54° NNW 15:49:17 10° NE
SL-16 R/B 3.2 15:39:41 10° S 15:45:21 36° WSW 15:46:46 32° W
Cosmos 1842 3.8 15:41:33 10° SSW 15:44:27 42° SW 15:44:27 42° SW
Sich 1 Rocket 3.6 15:43:09 26° NNW 15:45:46 87° W 15:50:27 10° S
Cosmos 2322 Rocket 3.0 15:44:38 31° WSW 15:45:53 34° SW 15:51:06 10° SSE
Cosmos 1420 Rocket 4.0 15:41:39 10° SSW 15:46:55 60° WNW 15:52:09 10° N
Cosmos 1980 Rocket 4.0 15:47:06 16° SW 15:49:06 19° SSW 15:53:06 10° SSE
STARLINK-1073 3.8 15:49:41 49° NW 15:50:08 52° NNW 15:54:14 10° NE
CZ-4B DEB 4.1 15:45:47 10° NNE 15:51:24 77° WNW 15:57:05 10° SSW
Okean O Rocket 2.0 15:47:44 10° NNE 15:52:13 68° ESE 15:56:45 10° S
STARLINK-1192 4.5 15:50:58 32° NNW 15:52:18 43° NNE 15:56:20 10° E
Cosmos 371 Rocket 3.2 15:47:39 10° SSW 15:52:38 87° WNW 15:57:33 10° NNE
CZ-4C R/B 2.9 15:49:32 31° W 15:53:08 59° SSW 15:59:28 10° SE
STARLINK-1121 3.9 15:54:28 45° NW 15:55:06 50° NNW 15:59:11 10° NE
USA 215 3.7 15:50:32 10° NNE 15:56:43 41° NW 15:59:51 26° W
STARLINK-1244 4.4 15:55:45 31° NNW 15:57:16 45° NNE 16:01:19 10° E
ISS -3.0 15:57:26 39° NNW 15:57:26 39° NNW 16:00:35 10° NE
Cosmos 2333 Rocket 2.2 15:54:20 23° NNW 15:58:06 86° SW 16:03:59 10° SSE
Radarsat Rocket 4.3 15:51:43 10° NNE 15:58:10 85° ESE 16:05:35 10° SSW
Cosmos 2084 3.3 15:57:18 41° NW 15:58:44 83° SW 16:03:05 10° SE
Envisat 4.4 15:54:55 10° NE 15:59:43 41° ESE 16:04:33 10° S
STARLINK-1106 4.0 15:59:15 41° WNW 16:00:03 48° NNW 16:04:08 10° NE
PSLV R/B 3.8 15:56:22 10° N 16:00:07 50° W 16:03:52 10° SSW
STARLINK-1138 4.3 16:00:32 29° NNW 16:02:14 47° NNE 16:06:18 10° E
Cosmos 2237 Rocket 3.3 15:57:34 10° N 16:03:00 46° ENE 16:08:29 10° SE
Helios 1A Rocket 3.9 15:59:14 10° NE 16:03:16 51° ESE 16:07:24 10° S
STARLINK-1112 4.0 16:04:02 38° WNW 16:05:01 46° NNW 16:09:03 10° NE
STARLINK-1201 3.3 16:04:43 47° NW 16:05:24 59° NNE 16:08:40 10° E
STARLINK-1143 4.3 16:05:18 28° NW 16:07:11 49° NNE 16:11:17 10° E
ATLAS CENTAUR R/B 2.8 16:06:00 22° SW 16:07:22 26° SSW 16:11:11 10° SE
Cosmos 2084 Rocket 3.6 16:04:35 19° SW 16:07:40 72° SE 16:11:56 10° ENE
Cosmos 2297 4.2 16:02:23 10° SSW 16:08:09 64° SE 16:13:50 10° NE
Cosmos 2278 Rocket 2.3 16:02:46 10° SW 16:08:20 53° WNW 16:13:50 10° N
STARLINK-1128 4.1 16:08:49 34° WNW 16:09:59 43° NNW 16:14:00 10° NE
BREEZE-M DEB (TANK) 3.2 16:09:31 34° NW 16:10:22 42° N 16:15:59 10° ENE
ATLAS 2AS CENTAUR R/B 3.6 16:05:33 11° SW 16:11:10 39° SSE 16:17:26 10° E
STARLINK-1241 4.2 16:10:07 26° NW 16:12:11 51° NNE 16:16:18 10° E
STARLINK-1228 2.8 16:13:17 49° WNW 16:13:55 71° N 16:16:55 10° E
Cosmos 1025 Rocket 3.0 16:10:13 10° SSW 16:14:39 64° W 16:19:02 10° N
STARLINK-1113 4.2 16:13:39 31° WNW 16:14:59 41° NNW 16:18:58 10° NE
Cosmos 1943 Rocket 3.5 16:10:01 10° SSW 16:15:23 39° SE 16:20:41 10° ENE
Cosmos 1674 4.4 16:11:57 10° S 16:15:38 37° ESE 16:19:18 10° NE
CZ-4B R/B 3.2 16:10:15 10° NNE 16:15:57 76° WNW 16:21:40 10° SSW
Cosmos 1331 Rocket 4.3 16:11:04 10° SSW 16:16:29 75° ESE 16:21:50 10° NNE
Cosmos 2292 Rocket 3.7 16:12:50 10° SSW 16:16:50 58° W 16:22:03 10° N
STARLINK-1239 4.1 16:14:52 25° NW 16:17:07 53° NNE 16:21:15 10° E
Cosmos 1782 Rocket 4.2 16:15:43 28° WNW 16:17:11 35° WSW 16:21:24 10° S
Cosmos 2266 Rocket 4.0 16:11:28 10° SSW 16:17:35 61° W 16:23:43 10° N
Landsat 5 3.6 16:14:05 10° S 16:18:20 53° WSW 16:21:23 17° NW
Cosmos 2098 Rocket 3.9 16:12:51 10° S 16:19:25 79° E 16:24:35 10° NNE
STARLINK-1119 4.3 16:18:23 29° WNW 16:19:54 39° NNW 16:23:50 10° NE
SL-08 R/B 4.1 16:15:50 10° S 16:20:03 33° WSW 16:21:55 24° WNW
Cosmos 1242 Rocket 2.5 16:16:57 10° SSW 16:20:43 78° WNW 16:24:22 10° N
STARLINK-1240 4.1 16:19:40 23° NW 16:22:05 56° NNE 16:26:14 10° E
Meteor 1-28 Rocket 4.0 16:20:01 10° S 16:23:25 31° WSW 16:24:22 27° W
Cosmos 332 Rocket 3.7 16:19:37 10° SSW 16:24:27 64° WNW 16:29:14 10° NNE
STARLINK-1114 4.3 16:23:11 26° WNW 16:24:51 38° NNW 16:28:46 10° NE
H-2A R/B 2.8 16:20:55 10° NNE 16:24:53 88° ESE 16:28:52 10° SSW
ALOS 3.1 16:21:16 10° NNW 16:25:22 29° W 16:29:31 10° SSW
STARLINK-1216 4.0 16:24:27 21° NW 16:27:03 58° NNE 16:31:13 10° E
Cosmos 2369 Rocket 3.6 16:22:51 10° SSW 16:28:10 38° SE 16:33:27 10° ENE
Okean 1 Rocket 3.9 16:24:05 10° N 16:28:31 55° E 16:33:01 10° SSE
Meteor 2-9 Rocket 4.3 16:23:30 10° NNW 16:29:02 56° WSW 16:34:29 10° S
CZ-4C R/B 4.0 16:26:17 10° S 16:29:30 29° WSW 16:30:33 25° W
STARLINK-1130 (DARKSAT) 4.4 16:27:57 24° WNW 16:29:47 36° NNW 16:33:39 10° NE
Cosmos 1707 2.8 16:25:59 10° SSW 16:29:50 52° W 16:33:38 10° N
SMAP 3.1 16:27:07 10° NNE 16:31:50 85° ESE 16:36:37 10° SSW
STARLINK-1237 4.0 16:29:13 20° NW 16:32:00 60° NNE 16:36:11 10° E
Cosmos 1452 Rocket 4.0 16:29:30 10° SW 16:34:22 36° WNW 16:39:10 10° NNW
STARLINK-1084 4.5 16:32:45 22° W 16:34:45 34° NNW 16:38:34 10° NNE
BREEZE-M DEB (TANK) 4.4 16:31:24 19° WNW 16:35:05 67° N 16:55:24 10° ENE
STARLINK-1202 4.0 16:34:02 18° WNW 16:37:00 62° NNE 16:41:11 10° E
Cosmos 1536 Rocket 3.9 16:33:38 10° SSW 16:37:56 43° W 16:42:12 10° NNW
Cosmos 2219 Rocket 2.4 16:33:32 14° NW 16:38:15 53° SW 16:43:53 10° SSE
Okean-O 3.9 16:34:43 10° NE 16:39:00 45° ESE 16:43:19 10° S
Cosmos 1271 Rocket 2.9 16:36:13 10° SSW 16:40:16 58° W 16:44:16 10° N
SAR-Lupe-4 4.1 16:36:55 10° S 16:40:23 39° WSW 16:43:43 11° NW
CZ-4B R/B 1.4 16:38:34 10° S 16:41:52 55° WSW 16:45:11 10° NNW
Cosmos 1544 4.1 16:40:14 18° WNW 16:42:06 27° WSW 16:45:23 10° S
NOAA 6 4.4 16:38:36 10° NNW 16:43:32 42° W 16:48:34 10° SSW
STARLINK-1246 3.9 16:43:35 16° WNW 16:46:56 66° NNE 16:51:08 10° E
Cosmos 1110 Rocket 4.0 16:41:53 10° SSW 16:47:10 64° WNW 16:52:26 10° N
GP-B 3.3 16:43:14 10° N 16:47:44 82° E 16:52:19 10° S
STARLINK-1203 3.9 16:47:01 15° WNW 16:50:31 70° NNE 16:54:47 10° E
STARLINK-1224 3.9 16:48:22 14° WNW 16:51:55 68° NNE 16:56:07 10° E
Cosmos 1356 3.6 16:49:11 10° NNW 16:52:38 52° WSW 16:56:07 10° S
STARLINK-1234 2.9 16:53:14 16° W 16:55:39 80° N 16:58:53 10° E
STARLINK-1209 2.9 16:53:48 16° W 16:56:15 80° N 16:59:28 10° E
STARLINK-1233 2.9 16:54:07 16° W 16:56:34 78° N 16:59:46 10° E
STARLINK-1225 3.8 16:53:10 13° WNW 16:56:54 70° NNE 17:01:07 10° E
STARLINK-1212 2.9 16:54:31 16° W 16:57:00 78° N 17:00:12 10° E
STARLINK-1105 2.9 16:54:58 16° W 16:57:27 78° N 17:00:39 10° E
KORONAS-FOTON 3.9 16:53:45 10° SSW 16:57:46 89° SE 17:01:47 10° N
STARLINK-1206 2.9 16:55:22 15° W 16:57:54 78° N 17:01:06 10° E
STARLINK-1247 2.9 16:55:48 15° W 16:58:20 78° N 17:01:34 10° E
STARLINK-1227 2.9 16:56:16 15° W 16:58:48 78° N 17:02:00 10° E
Cosmos 304 Rocket 4.0 16:54:17 10° SW 16:59:02 51° WNW 17:03:44 10° N
STARLINK-1218 2.9 16:56:41 15° W 16:59:15 79° N 17:02:27 10° E
ERBS 2.9 16:56:56 14° W 16:59:40 48° S 17:03:01 10° ESE
STARLINK-1226 2.9 16:57:07 15° W 16:59:41 79° N 17:02:54 10° E
STARLINK-1254 2.9 16:57:34 15° W 17:00:10 79° N 17:03:21 10° E
STARLINK-1215 2.9 16:57:59 15° W 17:00:36 79° N 17:03:49 10° E
STARLINK-1231 2.9 16:58:25 14° W 17:01:03 79° N 17:04:15 10° E
STARLINK-1230 3.8 16:57:57 12° WNW 17:01:52 72° NNE 17:06:05 10° E
YAOGAN 6 2.5 16:58:20 10° NNE 17:01:57 87° W 17:05:34 10° SSW
STARLINK-1232 2.9 16:59:17 14° W 17:01:57 79° N 17:05:10 10° E
STARLINK-1217 2.9 16:59:43 14° W 17:02:24 79° N 17:05:37 10° E
COSMOS 2428 3.2 16:57:00 10° WNW 17:02:28 43° SW 17:07:59 10° SSE
Aureole 3 Rocket 4.1 16:58:45 10° N 17:02:47 58° E 17:08:27 10° SSE
STARLINK-1208 2.9 17:00:11 14° W 17:02:52 79° N 17:06:04 10° E
STARLINK-1229 2.9 17:00:35 14° W 17:03:18 79° N 17:06:31 10° E
STARLINK-1271 2.9 17:01:02 13° W 17:03:46 79° N 17:06:58 10° E
STARLINK-1270 3.0 17:01:27 13° W 17:04:12 79° N 17:07:26 10° E
Meteor 1-24 Rocket 4.2 16:58:34 10° SSW 17:04:36 76° ESE 17:10:41 10° NNE
STARLINK-1154 2.9 17:01:52 13° W 17:04:38 79° N 17:07:51 10° E
Feng Yun 1-1 Rocket 4.4 16:59:08 10° N 17:05:02 71° WNW 17:11:05 10° SSW
STARLINK-1197 2.9 17:02:45 13° W 17:05:33 79° N 17:08:47 10° E
Cosmos 1980 3.7 17:00:04 10° NW 17:05:45 72° SW 17:11:31 10° SSE
Meteor 2-14 Rocket 4.5 16:59:36 10° SSW 17:05:51 74° W 17:12:02 10° N
STARLINK-1189 3.0 17:03:10 13° W 17:06:00 79° N 17:09:12 10° E
STARLINK-1198 3.0 17:03:37 13° W 17:06:28 79° N 17:09:41 10° E
STARLINK-1243 3.8 17:02:43 11° WNW 17:06:50 74° NNE 17:11:03 10° E
STARLINK-1188 3.0 17:04:03 13° W 17:06:54 79° N 17:10:07 10° E
STARLINK-1235 2.9 17:04:45 12° W 17:07:36 79° N 17:10:47 10° E
STARLINK-1187 2.9 17:05:09 12° W 17:08:01 79° N 17:11:11 10° E
CORIOLIS 4.2 17:03:21 10° N 17:08:40 61° WNW 17:14:05 10° SSW
IRS-1C Rocket 4.1 17:03:37 10° N 17:08:54 66° WNW 17:14:15 10° SSW
STARLINK-1199 2.9 17:05:59 12° W 17:08:54 79° N 17:12:05 10° E
Cosmos 1300 Rocket 4.4 17:05:11 10° NW 17:09:11 31° WSW 17:13:14 10° S
STARLINK-1191 2.9 17:06:25 12° W 17:09:20 79° N 17:12:32 10° E
STARLINK-1210 2.9 17:06:51 12° W 17:09:48 79° N 17:13:00 10° E
STARLINK-1221 2.9 17:07:16 12° W 17:10:14 79° N 17:13:25 10° E
STARLINK-1219 2.9 17:07:43 11° W 17:10:42 79° N 17:13:54 10° E
STARLINK-1222 2.9 17:08:08 11° W 17:11:09 79° N 17:14:20 10° E
STARLINK-67 2.5 17:09:11 12° W 17:11:35 70° N 17:14:11 10° ENE
STARLINK-1211 2.9 17:08:35 11° W 17:11:37 79° N 17:14:49 10° E
STARLINK-1236 3.8 17:07:34 10° WNW 17:11:48 75° N 17:16:02 10° E
STARLINK-1214 2.9 17:09:01 11° W 17:12:03 79° N 17:15:15 10° E
STARLINK-1245 3.0 17:09:25 11° W 17:12:29 80° N 17:15:42 10° E
STARLINK-1238 2.9 17:09:53 11° W 17:12:57 79° N 17:16:08 10° E
Abrixas rocket 3.7 17:10:25 10° NW 17:13:03 27° N 17:15:41 10° ENE
STARLINK-1205 3.0 17:10:44 11° W 17:13:51 80° N 17:17:03 10° E
STARLINK-1204 3.0 17:11:09 11° W 17:14:17 80° N 17:17:30 10° E
H-2A R/B 3.8 17:13:21 10° SSW 17:16:19 17° SW 17:19:14 10° W
Cosmos 1745 Rocket 4.1 17:09:57 10° S 17:16:19 89° E 17:22:40 10° N
CZ-4 R/B 2.2 17:12:26 10° NNE 17:16:41 62° ESE 17:20:56 10° S
Cosmos 1939 Rocket 4.1 17:12:40 10° NE 17:16:42 49° ESE 17:20:49 10° S
Cosmos 1689 Rocket 2.8 17:15:56 10° S 17:18:48 35° WSW 17:21:39 10° NW
FengYun 1-2 T 4.3 17:13:46 10° NNE 17:19:30 82° WNW 17:25:18 10° SSW
STARLINK-1269 3.8 17:17:30 10° WNW 17:21:45 78° N 17:25:59 10° E
Okean 2 Rocket 4.4 17:18:35 10° WNW 17:22:09 22° WSW 17:25:44 10° SSW
Cosmos 1302 Rocket 4.1 17:18:01 10° SSW 17:23:17 65° WNW 17:28:27 10° NNE
SL-16 R/B 4.1 17:20:35 10° SW 17:24:02 16° SSW 17:27:29 10° SSE
SL-16 R/B 2.7 17:18:22 10° NNW 17:24:03 69° ENE 17:29:48 10° SE
PSLV R/B 4.0 17:20:04 10° SSE 17:24:19 73° WSW 17:28:33 10° NNW
USA 81 4.3 17:19:29 10° S 17:24:54 81° E 17:30:14 10° N
COSMOS 2455 4.2 17:19:35 10° SW 17:25:09 35° SSE 17:30:40 10° E
Cosmos 2360 Rocket 3.8 17:21:29 10° WSW 17:25:41 20° SSW 17:29:52 10° SSE
Meteor 2-16 Rocket 4.5 17:19:47 10° SSW 17:25:56 73° W 17:32:03 10° N
Cosmos 292 Rocket 4.2 17:21:06 10° SSW 17:26:01 72° ESE 17:30:51 10° NNE
NOAA 11 4.5 17:21:54 10° NNE 17:27:26 79° ESE 17:33:00 10° SSW
